Other Public Products
Issued by NWS Charleston, SC

Current Version | Previous Version | Text Only | Print | Product List | Glossary Off
Versions: 1 2 3 4 5 6 7 8 9 10 11 12 13 14 15 16 17 18 19 20 21 22 23 24 25 26 27 28 29 30 31 32 33 34 35 36 37 38 39 40 41 42 43 44 45 46 47 48 49 50
000 FPUS82 KCHS 230012 OPUCHS TEST...KCHS/KSAV Gateway Observations...TEST National Weather Service Charleston SC 700 PM EST MON JAN 22 2018 NOTE: "fair" indicates few or no clouds below 12,000 feet with no significant weather and/or obstructions to visibility. SCZ050-WAZ558-NCZ071-TXZ119-213-PAZ071-DCZ001-FLZ074-172-MI076- NYZ176-178-MAZ016-IL014-TNZ027-NJZ106-GAZ044-MD014-230100- ...Gateway Observations for Charleston International... CITY SKY/WX TMP DP RH WIND PRES REMARKS Chas Airport FAIR 62 60 93 SE8 30.06F 6HR MIN TEMP: 62; 6HR MAX TEMP: 73; Seattle CLOUDY 47 38 71 S9 30.29R 6HR MIN TEMP: 43; 6HR MAX TEMP: 47; Charlotte MOCLDY 59 46 62 SE12 30.02F 6HR MIN TEMP: 57; 6HR MAX TEMP: 65; Dallas DFW PTCLDY 57 20 23 NW15G28 30.04R 6HR MIN TEMP: 57; 6HR MAX TEMP: 62; Dallas Love PTCLDY 57 21 24 NW15G26 30.05R 6HR MIN TEMP: 56; 6HR MAX TEMP: 60; Philladelphia MOCLDY 53 40 61 CALM 30.07S 6HR MIN TEMP: 53; 6HR MAX TEMP: 62; Wash National CLOUDY 57 43 59 S8 30.02S 6HR MIN TEMP: 56; 6HR MAX TEMP: 65; Baltimore CLOUDY 53 43 68 SE6 30.03R 6HR MIN TEMP: 53; 6HR MAX TEMP: 62; Miami MOCLDY 75 67 76 E12 30.06R 6HR MIN TEMP: 75; 6HR MAX TEMP: 80; Detroit CLOUDY 50 46 86 S12 29.62F 6HR MIN TEMP: 49; 6HR MAX TEMP: 55; 6HR PCP: 0.03; Newark CLOUDY 41 38 89 N12 30.14S FOG 6HR MIN TEMP: 41; 6HR MAX TEMP: 51; 6HR PCP: TRACE; Laguardia CLOUDY 38 35 89 NE15 30.15S FOG WCI 29 6HR MIN TEMP: 38; 6HR MAX TEMP: 44; J F K CLOUDY 43 42 97 NE9 30.15S 6HR MIN TEMP: 43; 6HR MAX TEMP: 52; Boston Logan CLOUDY 39 38 96 NE9 30.26F FOG WCI 33 6HR MIN TEMP: 37; 6HR MAX TEMP: 39; 6HR PCP: TRACE; Ft. Lauderdale FAIR 74 68 81 E14 30.05S 6HR MIN TEMP: 74; 6HR MAX TEMP: 77; Chicago O`Hare MOCLDY 49 45 86 SE10 29.43F 6HR MIN TEMP: 49; 6HR MAX TEMP: 54; 6HR PCP: TRACE; Chicago Midway MOCLDY 52 47 83 S10 29.44F 6HR MIN TEMP: 52; 6HR MAX TEMP: 55; 6HR PCP: TRACE; Houston Bush PTCLDY 59 28 30 NW12 30.07R 6HR MIN TEMP: 59; 6HR MAX TEMP: 67; Houston Hobby FAIR 61 27 27 NW13G22 30.05R 6HR MIN TEMP: 61; 6HR MAX TEMP: 66; Nashville MOCLDY 62 54 74 S16G25 29.70R 6HR MIN TEMP: 59; 6HR MAX TEMP: 63; Atlanta LGT RAIN 60 60 100 SE8 29.94S FOG 6HR MIN TEMP: 58; 6HR MAX TEMP: 62; 6HR PCP: 0.19; $$ GAZ044-118-TXZ119-213-NCZ071-DCZ001-MDZ014-506-PAZ021-071-NJZ106- NYZ176-178-MAZ106-OHZ011-021-055-MIZ076-KYZ091-ILZ014-INZ047- MNZ060-ONZ431-230100- ...Gateway Observations for Savannah International... CITY SKY/WX TMP DP RH WIND PRES REMARKS Savannah Arpt FAIR 64 61 90 SE8 30.03F 6HR MIN TEMP: 64; 6HR MAX TEMP: 77; Atlanta LGT RAIN 60 60 100 SE8 29.94S FOG 6HR MIN TEMP: 58; 6HR MAX TEMP: 62; 6HR PCP: 0.19; Charlotte MOCLDY 59 46 62 SE12 30.02F 6HR MIN TEMP: 57; 6HR MAX TEMP: 65; Dallas DFW PTCLDY 57 20 23 NW15G28 30.04R 6HR MIN TEMP: 57; 6HR MAX TEMP: 62; Houston Bush PTCLDY 59 28 30 NW12 30.07R 6HR MIN TEMP: 59; 6HR MAX TEMP: 67; Wash National CLOUDY 57 43 59 S8 30.02S 6HR MIN TEMP: 56; 6HR MAX TEMP: 65; Wash Dulles MOCLDY 59 43 55 S9 30.01R 6HR MIN TEMP: 59; 6HR MAX TEMP: 66; Baltimore CLOUDY 53 43 68 SE6 30.03R 6HR MIN TEMP: 53; 6HR MAX TEMP: 62; Philadelphia MOCLDY 53 40 61 CALM 30.07S 6HR MIN TEMP: 53; 6HR MAX TEMP: 62; Newark CLOUDY 41 38 89 N12 30.14S FOG 6HR MIN TEMP: 41; 6HR MAX TEMP: 51; 6HR PCP: TRACE; Laguardia CLOUDY 38 35 89 NE15 30.15S FOG WCI 29 6HR MIN TEMP: 38; 6HR MAX TEMP: 44; J F K CLOUDY 43 42 97 NE9 30.15S 6HR MIN TEMP: 43; 6HR MAX TEMP: 52; Boston CLOUDY 39 38 96 NE9 30.26F FOG WCI 33 6HR MIN TEMP: 37; 6HR MAX TEMP: 39; 6HR PCP: TRACE; Pittsburg CLOUDY 57 43 59 S5 29.80F 6HR MIN TEMP: 57; 6HR MAX TEMP: 63; Akron LGT RAIN 54 45 71 S16G23 29.74F 6HR MIN TEMP: 54; 6HR MAX TEMP: 60; 6HR PCP: 0.01; Cleveland LGT RAIN 56 49 77 S15G29 29.72F 6HR MIN TEMP: 56; 6HR MAX TEMP: 62; 6HR PCP: 0.02; Cincinnati CLOUDY 57 52 83 S20 29.62F 6HR MIN TEMP: 53; 6HR MAX TEMP: 57; 6HR PCP: 0.09; Columbus CLOUDY 54 49 83 S15G23 29.70S Detroit CLOUDY 50 46 86 S12 29.62F 6HR MIN TEMP: 49; 6HR MAX TEMP: 55; 6HR PCP: 0.03; Chicago O`Hare MOCLDY 49 45 86 SE10 29.43F 6HR MIN TEMP: 49; 6HR MAX TEMP: 54; 6HR PCP: TRACE; Minneapolis LGT SNOW 27 26 96 N18G32 29.72R VSB 1 WCI 14 6HR MIN TEMP: 27; 6HR MAX TEMP: 30; 6HR PCP: 0.47; Indianapolis MOCLDY 52 47 83 S16 29.56S 6HR MIN TEMP: 52; 6HR MAX TEMP: 54; Toronto Canada FOG 34 32 93 E10 29.81F VSB 1/2 WCI 26 $$

USA.gov is the U.S. government's official web portal to all federal, state and local government web resources and services.